[[{"header":{"parameterUnit":"m.s-1","parameterCategory":2,"la1":30.2991,"la2":30.254,"lo1":-89.0895,"lo2":-89.0444,"dy":0.0017,"dx":0.0017,"nx":28,"ny":28,"refTime":"2024-04-03T21:00:00:Z","depth":"0","parameterNumber":2,"parameterNumberName":"U-component_of_CURRENTS"},"data":[0,0,0,0,0,0,0,0,0,0,0,0,0,0,0,0,0,0,0,0,0,0,0,0,0,0,0,0,0,0,0,0,0,0,0,0,0,0,0,0,0,0,0,0,0,0,0,0,0,0,0,0,0,0,0,0,0,0,0.3473,0.3476,0,0.3738,0.3741,0.3744,0.3958,0.396,0.3963,0.3965,0.4072,0.4073,0.4073,0,0,0,0,0,0,0,0,0,0,0,0,0,0.3271,0.3272,0.3473,0.3476,0.348,0.3738,0.3741,0.3745,0.3957,0.396,0.3963,0.3966,0.4072,0.4073,0.4073,0,0,0,0,0,0,0,0,0,0,0,0,0,0.3427,0.3273,0.3472,0.3618,0.3634,0.3737,0.3741,0.3746,0.3957,0.396,0.3964,0.3967,0.4071,0.4072,0.4074,0.401,0,0,0.4077,0.4077,0,0,0,0,0,0,0,0,0.3418,0.3434,0.3593,0.3608,0.3626,0.382,0.371,0.3827,0.3956,0.3833,0.3965,0.3969,0.3971,0.3981,0.4023,0.4015,0.402,0.4077,0.4077,0.4078,0.4078,0,0,0,0,0,0,0,0.3407,0.3425,0.3577,0.3597,0.3617,0.3712,0.3736,0.3734,0.3875,0.3844,0.386,0.3891,0.398,0.4022,0.4027,0.4021,0.4077,0.4078,0.4078,0.4079,0.4065,0.4064,0,0,0,0,0,0,0.3367,0.3413,0.3568,0.3585,0.353,0.3712,0.374,0.3753,0.3879,0.3904,0.3888,0.39,0.4018,0.4025,0.4031,0.4054,0.4078,0.4079,0.4079,0.4066,0.4065,0.4064,0,0,0,0,0,0,0.3361,0.3377,0.3558,0.3508,0.3538,0.3711,0.3725,0.3756,0.3804,0.3915,0.3937,0.3903,0.4021,0.403,0.4059,0.4056,0.4079,0.408,0.4067,0.4065,0.4064,0.4039,0,0,0,0,0,0,0.3354,0.3373,0.3362,0.3504,0.3539,0.3607,0.3723,0.3759,0.3818,0.3837,0.3933,0.3949,0.4025,0.4057,0.406,0.4057,0.4081,0.4068,0.4066,0.4065,0.4041,0.4037,0.4033,0,0,0,0,0,0.3345,0.3324,0.3359,0.3379,0.352,0.3606,0.3631,0.3767,0.3814,0.3822,0.3912,0.3946,0.4047,0.4057,0.406,0.4058,0.4069,0.4067,0.4065,0.4043,0.4038,0.4033,0,0,0,0,0,0,0.3233,0.3348,0.339,0.3404,0.3488,0.3642,0.3667,0.3738,0.3815,0.3831,0.393,0.395,0.3979,0.3999,0.4007,0.4046,0.4062,0.406,0.4044,0.4039,0.4035,0.4012,0.4082,0,0,0,0,0,0.3194,0.3216,0.3329,0.3342,0.3371,0.3502,0.355,0.3634,0.3728,0.3769,0.3839,0.3906,0.3966,0.3989,0.4033,0.4031,0.4067,0.403,0.4026,0.4023,0.4004,0.407,0.4071,0.4056,0.4056,0.4056,0,0,0.3164,0.3223,0.3241,0.332,0.3397,0.345,0.354,0.36,0.3653,0.3754,0.3819,0.3882,0.396,0.4004,0.4014,0.4024,0.4046,0.402,0.4017,0.4,0.4068,0.407,0.4071,0.4055,0.4055,0.4055,0,0,0.3129,0.3148,0.3166,0.3222,0.3317,0.3391,0.3392,0.3517,0.3575,0.3623,0.3737,0.3798,0.3851,0.395,0.3995,0.3971,0.4022,0.3971,0.3936,0.4001,0.4004,0.4006,0.4062,0.407,0.3971,0.3971,0.3971,0,0.3088,0.3129,0.3182,0.3218,0.3271,0.3352,0.3393,0.3447,0.3571,0.3613,0.3627,0.378,0.3834,0.3941,0.3951,0.3965,0.4003,0.3959,0.3999,0.4002,0.4005,0.4062,0.4071,0.397,0.397,0.397,0.397,0,0.3095,0.312,0.3127,0.3204,0.3247,0.3287,0.337,0.3404,0.3455,0.3534,0.3614,0.3707,0.3813,0.3831,0.3883,0.3944,0.3965,0.399,0.4017,0.4005,0.4065,0.4075,0.3967,0.3968,0.3968,0.3969,0,0,0.3041,0.312,0.3127,0.3164,0.3246,0.329,0.333,0.3415,0.347,0.3527,0.3611,0.3698,0.3753,0.3805,0.3887,0.3925,0.3983,0.3951,0.3955,0.4016,0.4121,0.4054,0.4059,0.4021,0.4023,0.4024,0.4158,0,0.3044,0.3094,0.3142,0.3197,0.3229,0.33,0.3344,0.3419,0.3479,0.356,0.3636,0.3739,0.3744,0.3818,0.3849,0.3975,0.4004,0.3943,0.4113,0.4117,0.4068,0.4066,0.3879,0.3975,0.4168,0.417,0.4171,0,0.3053,0.3085,0.313,0.3211,0.3233,0.3274,0.3368,0.3422,0.3527,0.358,0.3665,0.3745,0.3851,0.3836,0.399,0.3954,0.4009,0.4069,0.4077,0.4024,0.4067,0.4014,0.3986,0.3931,0.4186,0.4185,0.4184,0,0.3011,0.3084,0.3117,0.3147,0.3238,0.3274,0.3327,0.3427,0.3483,0.3611,0.3672,0.3795,0.3888,0.3961,0.4068,0.4047,0.4209,0.4219,0.4202,0.42,0.4074,0.4056,0.4013,0.4279,0.4279,0.4278,0.4278,0,0.3005,0.3031,0.31,0.3121,0.3166,0.3246,0.3311,0.3386,0.3496,0.3563,0.3684,0.3765,0.3916,0.4028,0.4089,0.4176,0.424,0.4184,0.4224,0.4058,0.4038,0.4012,0.3995,0.4283,0.4282,0.4281,0.428,0,0.2955,0.3003,0.3041,0.3123,0.3147,0.3179,0.3282,0.3328,0.3453,0.3547,0.3597,0.3776,0.3918,0.4049,0.421,0.4222,0.4204,0.432,0.4105,0.4114,0.4007,0.3995,0.384,0.3732,0.4321,0.432,0.4319,0,0.2932,0.2943,0.3015,0.3024,0.3058,0.3115,0.3147,0.3281,0.3336,0.3537,0.3573,0.3761,0.3836,0.4054,0.4137,0.4246,0.4156,0.4136,0.4038,0.3956,0.3976,0.3834,0.3744,0.388,0.3876,0.3873,0.387,0,0.2869,0.2896,0.2921,0.294,0.297,0.3004,0.3069,0.3107,0.3264,0.3347,0.3458,0.3541,0.3759,0.3794,0.3963,0.4008,0.3931,0.4064,0.4039,0.3655,0.3437,0.3367,0.385,0.3838,0.3841,0.3844,0.3845,0.3847,0.2802,0.2797,0.2823,0.2828,0.2856,0.2858,0.2836,0.292,0.2973,0.3061,0.3245,0.3316,0.3503,0.3696,0.3717,0.3706,0.3711,0.3637,0.3647,0.3523,0.3332,0.3729,0.3722,0.3724,0.3726,0.3728,0.373,0,0.2682,0.2686,0.2699,0.2685,0.2645,0.2714,0.2741,0.2699,0.268,0.2841,0.2905,0.3079,0.3136,0.3294,0.3407,0.3337,0.3168,0.3277,0.3041,0.2987,0.3406,0.3301,0.3126,0.3126,0.3126,0.3126,0.3126,0.3126,0.2614,0.2568,0.2571,0.2459,0.2445,0.2353,0.2327,0.2311,0.2386,0.2441,0.2541,0.2687,0.3023,0.32,0.3183,0.3103,0.2906,0.2745,0.2797,0.3127,0.3161,0.3193,0.3089,0.2872,0.2872,0.2209,0.2204,0.2201]},{"header":{"parameterUnit":"m.s-1","parameterCategory":2,"la1":30.2991,"la2":30.254,"lo1":-89.0895,"lo2":-89.0444,"dy":0.0017,"dx":0.0017,"nx":28,"ny":28,"refTime":"2024-04-03T21:00:00:Z","depth":"0","parameterNumber":3,"parameterNumberName":"V-component_of_CURRENTS"},"data":[0,0,0,0,0,0,0,0,0,0,0,0,0,0,0,0,0,0,0,0,0,0,0,0,0,0,0,0,0,0,0,0,0,0,0,0,0,0,0,0,0,0,0,0,0,0,0,0,0,0,0,0,0,0,0,0,0,0,-0.0312,-0.0315,0,-0.0662,-0.0667,-0.0672,-0.0984,-0.0987,-0.0989,-0.0991,-0.1345,-0.1352,-0.1359,0,0,0,0,0,0,0,0,0,0,0,0,0,-0.0148,-0.0149,-0.0312,-0.0315,-0.0318,-0.0661,-0.0667,-0.0673,-0.0984,-0.0987,-0.099,-0.0993,-0.1342,-0.1351,-0.1359,0,0,0,0,0,0,0,0,0,0,0,0,0,-0.0342,-0.015,-0.0312,-0.0505,-0.0525,-0.066,-0.0667,-0.0675,-0.0983,-0.0987,-0.0991,-0.0994,-0.134,-0.135,-0.136,-0.1351,0,0,-0.1393,-0.1397,0,0,0,0,0,0,0,0,-0.0331,-0.0349,-0.0474,-0.0492,-0.0514,-0.0772,-0.0739,-0.0897,-0.0982,-0.0823,-0.0991,-0.0996,-0.1142,-0.1169,-0.1245,-0.1368,-0.1383,-0.1394,-0.14,-0.1405,-0.1408,0,0,0,0,0,0,0,-0.0316,-0.0337,-0.0464,-0.0476,-0.0501,-0.0654,-0.0685,-0.0772,-0.0967,-0.0837,-0.0857,-0.0874,-0.1156,-0.1234,-0.1255,-0.1388,-0.1394,-0.1403,-0.141,-0.1414,-0.1583,-0.1581,0,0,0,0,0,0,-0.0231,-0.0323,-0.0452,-0.0473,-0.0415,-0.0652,-0.0688,-0.0696,-0.0967,-0.1008,-0.0871,-0.0887,-0.1214,-0.1243,-0.1269,-0.1281,-0.1405,-0.1415,-0.1421,-0.1585,-0.1583,-0.1581,0,0,0,0,0,0,-0.0226,-0.0238,-0.0438,-0.0397,-0.0432,-0.0648,-0.0657,-0.0701,-0.0768,-0.099,-0.1035,-0.089,-0.1218,-0.1254,-0.1353,-0.1296,-0.1419,-0.1429,-0.1587,-0.1584,-0.1582,-0.1299,0,0,0,0,0,0,-0.0219,-0.0234,-0.0217,-0.039,-0.043,-0.048,-0.0653,-0.0704,-0.0767,-0.0793,-0.102,-0.106,-0.1224,-0.1336,-0.1363,-0.1313,-0.1437,-0.159,-0.1586,-0.1583,-0.1311,-0.1287,-0.1266,0,0,0,0,0,-0.0212,-0.0175,-0.0214,-0.023,-0.0396,-0.0476,-0.0511,-0.0689,-0.0763,-0.0769,-0.0944,-0.1052,-0.1333,-0.1342,-0.1375,-0.1327,-0.1591,-0.1587,-0.1583,-0.1321,-0.1291,-0.1267,0,0,0,0,0,0,-0.0108,-0.0207,-0.0254,-0.0251,-0.0329,-0.0523,-0.055,-0.0642,-0.0787,-0.0814,-0.1031,-0.1081,-0.1158,-0.1266,-0.1271,-0.1368,-0.1476,-0.1478,-0.1265,-0.124,-0.1218,-0.1128,-0.1446,0,0,0,0,0,-0.0058,-0.0059,-0.0167,-0.0163,-0.0184,-0.0346,-0.04,-0.0499,-0.0642,-0.0712,-0.0864,-0.1026,-0.1163,-0.1218,-0.136,-0.1383,-0.1427,-0.1374,-0.1352,-0.1332,-0.1282,-0.1298,-0.1271,-0.1567,-0.1567,-0.1567,0,0,-0.0023,-0.0069,-0.0077,-0.0138,-0.0224,-0.0248,-0.0392,-0.0438,-0.047,-0.0717,-0.0802,-0.0954,-0.1158,-0.1232,-0.1269,-0.131,-0.1268,-0.1327,-0.1308,-0.1269,-0.129,-0.1261,-0.1235,-0.1564,-0.1565,-0.1565,0,0,0.0047,0.0026,0.0042,0.0006,-0.0064,-0.0152,-0.0132,-0.0275,-0.0349,-0.042,-0.0627,-0.0719,-0.0914,-0.1048,-0.1143,-0.106,-0.1164,-0.1109,-0.0906,-0.0921,-0.0896,-0.0874,-0.0864,-0.0843,-0.108,-0.1079,-0.1079,0,0.0092,0.01,0.0037,0.005,0.0026,-0.0081,-0.0069,-0.0141,-0.03,-0.0333,-0.0405,-0.0663,-0.0823,-0.0915,-0.0908,-0.1002,-0.1023,-0.0989,-0.0885,-0.0865,-0.0847,-0.0843,-0.0824,-0.1065,-0.1067,-0.1068,-0.107,0,0.0159,0.0174,0.0192,0.0171,0.0152,0.0155,0.0078,0.0058,-0.0016,-0.0106,-0.0179,-0.0377,-0.0526,-0.0582,-0.0729,-0.0692,-0.075,-0.0864,-0.0934,-0.0798,-0.0805,-0.079,-0.1045,-0.105,-0.1054,-0.1058,0,0,0.0221,0.0233,0.0238,0.0254,0.022,0.021,0.0219,0.018,0.0184,0.0094,0.0093,-0.0096,-0.017,-0.0277,-0.044,-0.0432,-0.0332,-0.056,-0.0568,-0.0514,-0.0327,-0.0374,-0.0364,-0.0422,-0.0419,-0.0416,-0.0371,0,0.028,0.034,0.0324,0.0378,0.04,0.0351,0.0362,0.0329,0.0278,0.0263,0.0154,0.0068,-0.0065,-0.0125,-0.0125,-0.0325,-0.0283,-0.0331,-0.0498,-0.0502,-0.0531,-0.0345,-0.0371,-0.0334,-0.0357,-0.0355,-0.0353,0,0.0336,0.037,0.0439,0.048,0.0487,0.0511,0.0528,0.0527,0.05,0.0464,0.0435,0.0318,0.0284,0.0161,0.0051,0.0026,-0.009,-0.0199,-0.0203,-0.0328,-0.0519,-0.0485,-0.0307,-0.0491,-0.0332,-0.0334,-0.0335,0,0.0389,0.0448,0.051,0.0522,0.0554,0.0587,0.0602,0.0589,0.0609,0.0604,0.0623,0.0552,0.0506,0.0399,0.0174,0.012,0.0074,-0.0061,-0.0183,-0.019,-0.0282,-0.0302,-0.0271,-0.0061,-0.0061,-0.0061,-0.0062,0,0.0448,0.0498,0.0547,0.0581,0.0667,0.0665,0.0746,0.0745,0.0775,0.0831,0.074,0.0771,0.057,0.0487,0.0296,0.0128,0.0168,-0.0074,-0.0155,-0.0186,-0.0197,-0.0428,-0.0542,-0.006,-0.006,-0.006,-0.0061,0,0.0493,0.0521,0.0599,0.0664,0.0695,0.0758,0.0845,0.0902,0.0917,0.1,0.1014,0.0955,0.0854,0.0651,0.0448,0.027,-0.0004,0.0021,0.0019,-0.0062,-0.0353,-0.0451,-0.0497,-0.0569,-0.0065,-0.0066,-0.0066,0,0.0521,0.0567,0.0666,0.0724,0.0761,0.0855,0.0924,0.0967,0.1038,0.1109,0.1167,0.1108,0.1068,0.0788,0.0471,0.0202,-0.0001,-0.0008,-0.0115,-0.0288,-0.046,-0.054,-0.0603,-0.0122,-0.0123,-0.0123,-0.0124,0,0.0577,0.0612,0.0679,0.0799,0.089,0.0996,0.1103,0.1179,0.1249,0.1318,0.1393,0.1374,0.112,0.0838,0.0466,0.0247,-0.0132,-0.0031,-0.0213,-0.0455,-0.0536,-0.0674,-0.0226,-0.013,-0.0129,-0.0129,-0.0129,-0.0128,0.062,0.0678,0.0769,0.0886,0.0992,0.1125,0.1215,0.1328,0.1453,0.1565,0.1545,0.1545,0.1155,0.0644,0.0346,-0.0195,-0.019,-0.039,-0.0476,-0.0526,-0.0632,-0.0166,-0.0182,-0.0181,-0.0181,-0.0181,-0.0181,0,0.0672,0.0742,0.085,0.0988,0.1106,0.1154,0.1327,0.1418,0.1562,0.1676,0.1718,0.1532,0.1024,0.054,-0.0176,-0.0572,-0.0716,-0.0788,-0.0911,-0.0942,-0.0527,-0.0572,-0.067,-0.0669,-0.0669,-0.0669,-0.0669,-0.0669,0.0703,0.0807,0.0865,0.1061,0.1156,0.1315,0.1409,0.1547,0.1665,0.1794,0.1816,0.18,0.1446,0.0118,-0.0787,-0.1004,-0.1246,-0.1319,-0.1419,-0.1172,-0.1143,-0.1114,-0.1181,-0.1404,-0.1405,-0.1806,-0.181,-0.1813]}],[{"header":{"parameterUnit":"m.s-1","parameterCategory":2,"la1":30.2991,"la2":30.254,"lo1":-89.0895,"lo2":-89.0444,"dy":0.0017,"dx":0.0017,"nx":28,"ny":28,"refTime":"2024-04-03T21:00:00:Z","depth":"2","parameterNumber":2,"parameterNumberName":"U-component_of_CURRENTS"},"data":[0,0,0,0,0,0,0,0,0,0,0,0,0,0,0,0,0,0,0,0,0,0,0,0,0,0,0,0,0,0,0,0,0,0,0,0,0,0,0,0,0,0,0,0,0,0,0,0,0,0,0,0,0,0,0,0,0,0,0.2716,0.2717,0,0.2821,0.2822,0.2823,0.2863,0.2863,0.2863,0.2863,0.2784,0.2782,0.278,0,0,0,0,0,0,0,0,0,0,0,0,0,0.2593,0.2595,0.2716,0.2717,0.2719,0.2821,0.2822,0.2824,0.2863,0.2863,0.2863,0.2863,0.2784,0.2782,0.278,0,0,0,0,0,0,0,0,0,0,0,0,0,0.2665,0.2595,0.2715,0.2752,0.2757,0.2821,0.2822,0.2824,0.2863,0.2863,0.2863,0.2863,0.2785,0.2782,0.2779,0.2765,0,0,0.277,0.2769,0,0,0,0,0,0,0,0,0.2661,0.2669,0.2745,0.275,0.2755,0.2831,0.275,0.2796,0.2864,0.2821,0.2863,0.2863,0.2784,0.2781,0.2801,0.2762,0.2758,0.277,0.2768,0.2767,0.2766,0,0,0,0,0,0,0,0.2656,0.2665,0.2755,0.2747,0.2753,0.2779,0.2788,0.276,0.2797,0.2825,0.2828,0.2843,0.2785,0.2804,0.2799,0.2757,0.277,0.2768,0.2766,0.2765,0.2923,0.2929,0,0,0,0,0,0,0.2645,0.266,0.2752,0.2759,0.2709,0.2781,0.2792,0.2805,0.2802,0.2803,0.2843,0.2845,0.2809,0.2803,0.2796,0.2889,0.2767,0.2764,0.2763,0.2917,0.2924,0.2931,0,0,0,0,0,0,0.2642,0.2652,0.2748,0.2714,0.2728,0.2783,0.2798,0.2807,0.2841,0.2818,0.2816,0.2869,0.2809,0.28,0.2881,0.2882,0.2763,0.276,0.291,0.2919,0.2928,0.3003,0,0,0,0,0,0,0.2638,0.265,0.2647,0.2713,0.2729,0.278,0.2799,0.2809,0.285,0.2854,0.2839,0.2831,0.2808,0.2887,0.2878,0.2875,0.2758,0.2902,0.2914,0.2925,0.2993,0.3014,0.3031,0,0,0,0,0,0.2633,0.2623,0.2646,0.2657,0.2726,0.278,0.279,0.2828,0.2852,0.286,0.2937,0.2833,0.295,0.2891,0.2878,0.2874,0.2897,0.2911,0.2924,0.2985,0.301,0.3031,0,0,0,0,0,0,0.2555,0.2629,0.2655,0.2665,0.2719,0.2787,0.2797,0.2838,0.2904,0.2916,0.2912,0.2912,0.2998,0.2953,0.2887,0.2972,0.2903,0.2915,0.2953,0.2976,0.2995,0.2875,0.2756,0,0,0,0,0,0.2542,0.2566,0.2636,0.2648,0.2672,0.2743,0.2769,0.2804,0.2875,0.2902,0.2911,0.2956,0.3041,0.3024,0.3076,0.3085,0.3051,0.3087,0.3106,0.3121,0.303,0.3093,0.3106,0.2975,0.2975,0.2975,0,0,0.2518,0.2561,0.2575,0.2635,0.2681,0.272,0.2757,0.2802,0.2846,0.2878,0.2939,0.3029,0.3084,0.3156,0.3177,0.31,0.3161,0.3138,0.3149,0.3047,0.3108,0.3119,0.3129,0.2984,0.2982,0.2981,0,0,0.2497,0.2522,0.2544,0.2588,0.2659,0.2701,0.2719,0.2799,0.284,0.2922,0.302,0.312,0.316,0.3227,0.3265,0.3408,0.3304,0.343,0.3351,0.3419,0.3427,0.3432,0.3458,0.3465,0.3383,0.3383,0.3384,0,0.2469,0.2507,0.2555,0.2591,0.2629,0.2696,0.2733,0.2785,0.2886,0.2937,0.2937,0.3146,0.3183,0.3319,0.3377,0.343,0.344,0.325,0.3432,0.3437,0.3441,0.3465,0.3472,0.3389,0.3388,0.3388,0.3387,0,0.2478,0.2507,0.2521,0.2594,0.2632,0.2672,0.2752,0.2801,0.2856,0.2919,0.3065,0.3171,0.3272,0.3331,0.3371,0.3459,0.3454,0.349,0.3342,0.3457,0.3479,0.3484,0.3396,0.3394,0.3393,0.3391,0,0,0.2435,0.2515,0.2523,0.2557,0.2641,0.2677,0.2746,0.2838,0.2902,0.2974,0.3059,0.3217,0.3265,0.3315,0.3412,0.3419,0.35,0.3426,0.3427,0.339,0.3616,0.3495,0.3489,0.357,0.3571,0.3571,0.3634,0,0.2439,0.2493,0.2537,0.2591,0.2628,0.2701,0.2764,0.2852,0.2929,0.3019,0.3122,0.3258,0.3269,0.3353,0.3367,0.3513,0.3508,0.3475,0.3556,0.3555,0.3385,0.3488,0.3257,0.3281,0.3638,0.3639,0.364,0,0.2444,0.2484,0.2533,0.2611,0.2635,0.2676,0.2788,0.2853,0.2988,0.3055,0.3153,0.3255,0.3355,0.3339,0.3473,0.3457,0.3495,0.3544,0.3551,0.3375,0.3441,0.3222,0.3276,0.3647,0.3647,0.3646,0.3645,0,0.2405,0.248,0.2517,0.2545,0.2641,0.2686,0.2743,0.2869,0.2943,0.3093,0.3164,0.3289,0.3382,0.3439,0.3527,0.3521,0.3625,0.3667,0.3574,0.3567,0.3338,0.3308,0.3688,0.3688,0.3687,0.3687,0.3687,0,0.2393,0.2424,0.2504,0.2527,0.2587,0.2663,0.2744,0.2833,0.2959,0.3045,0.3183,0.3267,0.3401,0.3491,0.3534,0.3555,0.3651,0.3521,0.3565,0.337,0.3344,0.362,0.3611,0.369,0.3689,0.3689,0.3688,0,0.2346,0.2397,0.2445,0.2538,0.257,0.2615,0.2732,0.2788,0.293,0.3044,0.3103,0.3275,0.3383,0.3486,0.3603,0.3574,0.3623,0.3599,0.3331,0.3336,0.351,0.3506,0.3496,0.3492,0.3488,0.3485,0.3483,0,0.2324,0.2344,0.2435,0.2461,0.2505,0.2579,0.2627,0.2762,0.2823,0.3036,0.3079,0.3236,0.3294,0.341,0.3415,0.3451,0.3547,0.3234,0.315,0.3441,0.3486,0.3488,0.3488,0.2922,0.2915,0.291,0.2906,0,0.2277,0.2313,0.2345,0.2404,0.2452,0.2499,0.2579,0.262,0.2775,0.2864,0.2964,0.3032,0.3147,0.3069,0.3122,0.3114,0.321,0.3117,0.3531,0.299,0.2901,0.2945,0.2965,0.2856,0.2861,0.2865,0.2867,0.2869,0.223,0.2238,0.2279,0.2316,0.2365,0.2387,0.238,0.246,0.251,0.2608,0.2746,0.2771,0.2833,0.277,0.2718,0.27,0.2899,0.2804,0.2822,0.2846,0.2751,0.2659,0.255,0.2553,0.2556,0.2558,0.256,0,0.2144,0.2155,0.2188,0.2203,0.2189,0.227,0.231,0.2276,0.2256,0.2389,0.243,0.2279,0.2252,0.2339,0.223,0.2229,0.222,0.2153,0.2138,0.2189,0.2234,0.2108,0.1737,0.1734,0.1732,0.1729,0,0,0.21,0.2071,0.2073,0.2002,0.2019,0.1966,0.1956,0.194,0.1993,0.1965,0.1976,0.2155,0.2264,0.1964,0.1938,0.1823,0.1987,0.1755,0.2422,0.2456,0.2497,0.2624,0.2488,0,0,0,0,0]},{"header":{"parameterUnit":"m.s-1","parameterCategory":2,"la1":30.2991,"la2":30.254,"lo1":-89.0895,"lo2":-89.0444,"dy":0.0017,"dx":0.0017,"nx":28,"ny":28,"refTime":"2024-04-03T21:00:00:Z","depth":"2","parameterNumber":3,"parameterNumberName":"V-component_of_CURRENTS"},"data":[0,0,0,0,0,0,0,0,0,0,0,0,0,0,0,0,0,0,0,0,0,0,0,0,0,0,0,0,0,0,0,0,0,0,0,0,0,0,0,0,0,0,0,0,0,0,0,0,0,0,0,0,0,0,0,0,0,0,0.0022,0.0021,0,-0.0104,-0.0106,-0.0108,-0.0132,-0.013,-0.0129,-0.0128,-0.0175,-0.0178,-0.018,0,0,0,0,0,0,0,0,0,0,0,0,0,0.0078,0.0078,0.0022,0.002,0.0019,-0.0104,-0.0106,-0.0108,-0.0132,-0.013,-0.0129,-0.0127,-0.0174,-0.0178,-0.0181,0,0,0,0,0,0,0,0,0,0,0,0,0,0.001,0.0078,0.0022,-0.0004,-0.0008,-0.0103,-0.0106,-0.0109,-0.0132,-0.013,-0.0128,-0.0126,-0.0173,-0.0177,-0.0181,-0.0247,0,0,-0.0193,-0.0194,0,0,0,0,0,0,0,0,0.0014,0.0007,0.0001,-0.0003,-0.0006,-0.0096,-0.0104,-0.015,-0.0133,-0.0089,-0.0128,-0.0125,-0.014,-0.0147,-0.0182,-0.0249,-0.0251,-0.0193,-0.0195,-0.0197,-0.0198,0,0,0,0,0,0,0,0.0019,0.0012,-0.0032,-0.0001,-0.0005,-0.0065,-0.0072,-0.0114,-0.0127,-0.0093,-0.0094,-0.0102,-0.0142,-0.0179,-0.0183,-0.0252,-0.0193,-0.0196,-0.0199,-0.02,-0.0437,-0.0441,0,0,0,0,0,0,0.0049,0.0017,-0.0028,-0.0036,0.0014,-0.0067,-0.0075,-0.0073,-0.0128,-0.0134,-0.0104,-0.0103,-0.0173,-0.0179,-0.0185,-0.0234,-0.0197,-0.0201,-0.0203,-0.0433,-0.0438,-0.0443,0,0,0,0,0,0,0.0051,0.0046,-0.0023,-0.001,-0.0022,-0.0068,-0.0068,-0.0077,-0.0102,-0.0136,-0.0141,-0.0118,-0.0172,-0.0179,-0.0257,-0.0236,-0.0202,-0.0206,-0.0429,-0.0435,-0.044,-0.0351,0,0,0,0,0,0,0.0053,0.0048,0.0053,-0.0007,-0.0021,-0.0044,-0.007,-0.008,-0.0109,-0.0109,-0.0151,-0.0154,-0.0171,-0.0252,-0.0261,-0.0241,-0.0209,-0.0424,-0.0431,-0.0438,-0.0349,-0.0354,-0.0357,0,0,0,0,0,0.0056,0.0072,0.0054,0.0048,-0.001,-0.0042,-0.0055,-0.0086,-0.0111,-0.0107,-0.0187,-0.0152,-0.0305,-0.0259,-0.0268,-0.0248,-0.042,-0.0429,-0.0438,-0.0347,-0.0353,-0.0357,0,0,0,0,0,0,0.0106,0.0069,0.0049,0.0055,0.0022,-0.0043,-0.0045,-0.0088,-0.0153,-0.0154,-0.0206,-0.0216,-0.0302,-0.031,-0.0258,-0.0355,-0.0356,-0.0367,-0.0284,-0.0289,-0.0293,-0.0163,-0.0212,0,0,0,0,0,0.0116,0.0116,0.0071,0.0074,0.0066,0.0001,-0.0022,-0.0043,-0.0106,-0.0131,-0.0175,-0.0249,-0.0353,-0.0343,-0.0439,-0.0456,-0.0448,-0.0461,-0.0465,-0.0467,-0.038,-0.0412,-0.0406,-0.0472,-0.0472,-0.0472,0,0,0.0131,0.0114,0.0111,0.0084,0.0053,0.0049,-0.0006,-0.002,-0.0033,-0.0127,-0.0165,-0.0287,-0.0388,-0.0449,-0.0477,-0.0427,-0.0462,-0.0479,-0.0478,-0.0387,-0.042,-0.0412,-0.0405,-0.0478,-0.0477,-0.0476,0,0,0.017,0.0155,0.0169,0.0152,0.0124,0.0088,0.0088,0.0027,0.0002,-0.0064,-0.0183,-0.027,-0.0377,-0.0432,-0.0483,-0.056,-0.0536,-0.0618,-0.0446,-0.0482,-0.0472,-0.0464,-0.0482,-0.0476,-0.055,-0.055,-0.055,0,0.019,0.0204,0.0168,0.0181,0.0177,0.0114,0.0129,0.0087,0.0001,-0.0019,-0.0049,-0.0268,-0.035,-0.0429,-0.046,-0.0548,-0.0568,-0.0404,-0.0472,-0.0464,-0.0457,-0.0477,-0.0471,-0.0547,-0.0547,-0.0548,-0.0548,0,0.0236,0.0249,0.0263,0.0259,0.0249,0.0257,0.021,0.0188,0.0138,0.009,-0.0011,-0.0146,-0.0238,-0.0316,-0.0394,-0.0414,-0.0452,-0.0521,-0.0423,-0.0442,-0.0467,-0.0462,-0.0542,-0.0543,-0.0544,-0.0545,0,0,0.0273,0.0291,0.0296,0.0315,0.0295,0.0296,0.0289,0.0264,0.0265,0.0189,0.0185,0.0004,-0.0049,-0.0112,-0.0239,-0.023,-0.0238,-0.031,-0.0314,-0.0259,-0.0298,-0.0339,-0.0339,-0.0318,-0.0316,-0.0315,-0.0346,0,0.0318,0.0371,0.0361,0.0406,0.043,0.0394,0.0394,0.0365,0.0323,0.0304,0.0206,0.0123,0.002,-0.0031,-0.0044,-0.0229,-0.0215,-0.022,-0.0344,-0.0345,-0.0323,-0.033,-0.0307,-0.0333,-0.0341,-0.034,-0.0339,0,0.0365,0.0396,0.0455,0.0491,0.0499,0.0517,0.0526,0.0519,0.0481,0.045,0.0411,0.0307,0.0261,0.0172,0.0032,0.0028,-0.009,-0.0192,-0.0198,-0.0231,-0.0375,-0.0319,-0.0323,-0.0331,-0.0332,-0.0332,-0.0333,0,0.041,0.0462,0.0517,0.0528,0.0554,0.0579,0.059,0.0568,0.0581,0.0556,0.057,0.0476,0.043,0.0304,0.01,0.0064,-0.0041,-0.0141,-0.027,-0.0276,-0.0266,-0.0274,-0.0186,-0.0186,-0.0186,-0.0185,-0.0185,0,0.0463,0.0506,0.0551,0.058,0.0653,0.0648,0.0712,0.0703,0.0715,0.0754,0.0661,0.0671,0.0465,0.036,0.0178,-0.001,0.0015,-0.0195,-0.0269,-0.025,-0.0255,-0.0258,-0.0266,-0.0187,-0.0186,-0.0186,-0.0186,0,0.0505,0.053,0.0597,0.0651,0.0678,0.0732,0.0804,0.0846,0.0849,0.0906,0.0912,0.0824,0.0685,0.0474,0.0246,0.0084,-0.0103,-0.0181,-0.0131,-0.0197,-0.0328,-0.0332,-0.0301,-0.0303,-0.0304,-0.0305,-0.0306,0,0.0533,0.0573,0.0657,0.0709,0.0742,0.0823,0.0881,0.091,0.0965,0.0998,0.1038,0.0933,0.0852,0.0527,0.0223,-0.0063,-0.0112,-0.0221,-0.0278,-0.0254,-0.0331,-0.0334,-0.0337,-0.0257,-0.0257,-0.0257,-0.0258,0,0.0583,0.0611,0.0669,0.0778,0.0857,0.0949,0.104,0.1103,0.1148,0.1189,0.1214,0.1155,0.0857,0.0559,0.0177,-0.0019,-0.0172,-0.0236,-0.0213,-0.0237,-0.0217,-0.0291,-0.0295,-0.026,-0.026,-0.026,-0.0259,-0.0259,0.0619,0.067,0.0748,0.0852,0.0947,0.1062,0.1138,0.1226,0.1315,0.1384,0.1332,0.1255,0.094,0.0436,0.0114,-0.0209,-0.0211,-0.0323,-0.032,-0.0317,-0.0312,-0.0296,-0.0351,-0.0352,-0.0352,-0.0352,-0.0352,0,0.0662,0.0722,0.0817,0.0935,0.1038,0.1086,0.1233,0.1306,0.1404,0.1465,0.1461,0.1166,0.0831,0.0486,-0.0003,-0.0303,-0.0322,-0.0382,-0.0339,-0.0334,-0.0331,-0.0326,-0.0369,-0.037,-0.0371,-0.0372,0,0,0.0686,0.0775,0.0824,0.0989,0.1075,0.1215,0.1298,0.1403,0.1479,0.1522,0.1485,0.1381,0.0946,0.0595,0.0187,-0.0084,-0.0134,-0.0135,-0.0091,0.0013,0.002,-0.0271,-0.0255,0,0,0,0,0]}],[{"header":{"parameterUnit":"m.s-1","parameterCategory":2,"la1":30.2991,"la2":30.254,"lo1":-89.0895,"lo2":-89.0444,"dy":0.0017,"dx":0.0017,"nx":28,"ny":28,"refTime":"2024-04-03T21:00:00:Z","depth":"4","parameterNumber":2,"parameterNumberName":"U-component_of_CURRENTS"},"data":[0,0,0,0,0,0,0,0,0,0,0,0,0,0,0,0,0,0,0,0,0,0,0,0,0,0,0,0,0,0,0,0,0,0,0,0,0,0,0,0,0,0,0,0,0,0,0,0,0,0,0,0,0,0,0,0,0,0,0.1306,0.1307,0,0.1266,0.1264,0.1263,0.1145,0.1144,0.1142,0.114,0.0965,0.0963,0.096,0,0,0,0,0,0,0,0,0,0,0,0,0,0.1268,0.1269,0.1306,0.1307,0.1307,0.1266,0.1264,0.1263,0.1146,0.1143,0.1141,0.1139,0.0966,0.0963,0.0959,0,0,0,0,0,0,0,0,0,0,0,0,0,0.1255,0.1269,0.1306,0.1249,0.1244,0.1266,0.1264,0.1263,0.1146,0.1143,0.1141,0.1138,0.0967,0.0963,0.0959,0.0989,0,0,0.0946,0.0944,0,0,0,0,0,0,0,0,0.1256,0.1255,0.1257,0.1253,0.1247,0.1214,0.1187,0.1167,0.1147,0.1175,0.114,0.1137,0.1043,0.1033,0.1022,0.0981,0.0973,0.0945,0.0943,0.0941,0.094,0,0,0,0,0,0,0,0.1257,0.1257,0.1282,0.1258,0.1252,0.1221,0.1215,0.1183,0.1117,0.1173,0.1166,0.1174,0.1038,0.1027,0.1017,0.097,0.0945,0.0942,0.0939,0.0937,0.0962,0.0965,0,0,0,0,0,0,0.1281,0.1258,0.1284,0.1282,0.1253,0.1224,0.1217,0.1222,0.112,0.1106,0.1177,0.1169,0.1036,0.1022,0.101,0.1088,0.0941,0.0937,0.0934,0.0958,0.0962,0.0966,0,0,0,0,0,0,0.1281,0.1284,0.1286,0.1275,0.1274,0.1229,0.1234,0.1222,0.124,0.1126,0.1106,0.121,0.1033,0.1016,0.1016,0.1078,0.0935,0.0931,0.0955,0.096,0.0964,0.1211,0,0,0,0,0,0,0.128,0.1284,0.1302,0.1277,0.1276,0.1309,0.1237,0.1224,0.1252,0.1242,0.1149,0.1127,0.1029,0.1024,0.1012,0.1069,0.0927,0.095,0.0957,0.0963,0.1199,0.1224,0.1246,0,0,0,0,0,0.1278,0.1295,0.1303,0.1307,0.13,0.1312,0.1308,0.126,0.1257,0.1267,0.1224,0.1132,0.1053,0.1024,0.1009,0.1066,0.0947,0.0955,0.0962,0.1189,0.1219,0.1245,0,0,0,0,0,0,0.1264,0.1286,0.1292,0.131,0.1326,0.1294,0.1301,0.1306,0.1287,0.1281,0.1183,0.116,0.117,0.1101,0.1072,0.1091,0.0982,0.0987,0.116,0.1187,0.121,0.1221,0.0924,0,0,0,0,0,0.1286,0.1314,0.1328,0.1347,0.1361,0.1358,0.1365,0.1352,0.1333,0.1323,0.1285,0.1233,0.1189,0.1177,0.1116,0.1153,0.1105,0.1176,0.12,0.122,0.122,0.1253,0.128,0.099,0.099,0.099,0,0,0.1288,0.1304,0.132,0.135,0.1354,0.1375,0.1351,0.138,0.1403,0.1309,0.1342,0.1311,0.1214,0.1229,0.123,0.1184,0.128,0.1229,0.1247,0.1235,0.1264,0.1292,0.1317,0.0995,0.0994,0.0993,0,0,0.1294,0.1326,0.135,0.1376,0.1413,0.1414,0.1446,0.1471,0.1481,0.1529,0.1462,0.1501,0.1439,0.1407,0.137,0.15,0.1393,0.1473,0.1613,0.1648,0.1673,0.1693,0.1683,0.17,0.1498,0.1498,0.1499,0,0.1301,0.1327,0.1359,0.1387,0.1411,0.1446,0.1476,0.1499,0.1531,0.1559,0.1555,0.1558,0.152,0.1532,0.1589,0.1555,0.1533,0.1518,0.1681,0.1701,0.1717,0.1701,0.1717,0.1511,0.151,0.1508,0.1507,0,0.1313,0.135,0.1368,0.1418,0.1451,0.1488,0.1533,0.159,0.1641,0.1669,0.1738,0.1736,0.1734,0.1755,0.1716,0.1821,0.1752,0.1702,0.1617,0.1762,0.1735,0.1748,0.1529,0.1525,0.1521,0.1518,0,0,0.1296,0.1365,0.1378,0.1406,0.1479,0.1501,0.157,0.1633,0.168,0.1772,0.1844,0.1892,0.194,0.1907,0.1902,0.1977,0.2126,0.1923,0.1919,0.1922,0.2178,0.1987,0.198,0.2111,0.2115,0.2117,0.2115,0,0.1302,0.1355,0.1393,0.145,0.1482,0.1545,0.1601,0.1672,0.1736,0.1821,0.1897,0.195,0.1974,0.2019,0.2107,0.2087,0.2168,0.2128,0.2024,0.202,0.1843,0.1992,0.2128,0.2124,0.2126,0.2128,0.213,0,0.1301,0.1342,0.1398,0.1475,0.1496,0.1544,0.164,0.1698,0.181,0.1873,0.1977,0.2013,0.2144,0.2155,0.2245,0.2215,0.2238,0.2243,0.2241,0.1977,0.1853,0.1941,0.2151,0.2149,0.2148,0.2146,0.2145,0,0.1265,0.1343,0.139,0.1419,0.1511,0.1563,0.1625,0.1727,0.1787,0.1925,0.1983,0.2101,0.2184,0.2238,0.2271,0.2275,0.2335,0.2315,0.2161,0.2145,0.2204,0.2181,0.2411,0.2411,0.2411,0.2411,0.2411,0,0.1245,0.1288,0.1385,0.1411,0.1484,0.1561,0.1647,0.1723,0.1842,0.191,0.2026,0.2089,0.2225,0.2261,0.2282,0.2234,0.2338,0.2202,0.2148,0.2307,0.2296,0.2213,0.219,0.2411,0.2411,0.2411,0.2411,0,0.1195,0.1258,0.1318,0.1427,0.1469,0.153,0.1663,0.1706,0.1833,0.1925,0.1982,0.2119,0.2157,0.2203,0.2275,0.2224,0.2199,0.216,0.2302,0.2251,0.1987,0.1977,0.2001,0.1995,0.1989,0.1985,0.1981,0,0.117,0.1197,0.1321,0.1356,0.1413,0.1513,0.1569,0.1707,0.1748,0.1912,0.1935,0.2039,0.2103,0.203,0.21,0.2067,0.2064,0.2036,0.2072,0.2009,0.1955,0.1953,0.195,0.1972,0.1971,0.1969,0.1968,0,0.1119,0.1178,0.1225,0.1308,0.1374,0.144,0.1531,0.1559,0.1702,0.1813,0.1866,0.1896,0.1921,0.1947,0.1918,0.1906,0.2041,0.198,0.1993,0.2027,0.1974,0.1925,0.1929,0.1949,0.1952,0.1954,0.1955,0,0.1087,0.1107,0.1177,0.1243,0.1317,0.1355,0.1415,0.1466,0.1542,0.1707,0.172,0.1808,0.192,0.186,0.1829,0.1787,0.1792,0.1767,0.1791,0.1812,0.1747,0.1652,0.1503,0,0,0,0,0,0.1046,0.1055,0.11,0.1171,0.1236,0.129,0.1374,0.1427,0.1556,0.1551,0.164,0.1652,0.1654,0.1696,0.1615,0.1723,0.1778,0.1621,0.1758,0.1845,0.1867,0.1804,0,0,0,0,0,0,0.1012,0.105,0.1073,0.1102,0.1131,0.1201,0.1255,0.1336,0.1338,0.1468,0.1468,0.1567,0.1571,0.1687,0.1595,0.1598,0.1653,0.1669,0.1665,0.1833,0.1853,0.187,0.1813,0,0,0,0,0]},{"header":{"parameterUnit":"m.s-1","parameterCategory":2,"la1":30.2991,"la2":30.254,"lo1":-89.0895,"lo2":-89.0444,"dy":0.0017,"dx":0.0017,"nx":28,"ny":28,"refTime":"2024-04-03T21:00:00:Z","depth":"4","parameterNumber":3,"parameterNumberName":"V-component_of_CURRENTS"},"data":[0,0,0,0,0,0,0,0,0,0,0,0,0,0,0,0,0,0,0,0,0,0,0,0,0,0,0,0,0,0,0,0,0,0,0,0,0,0,0,0,0,0,0,0,0,0,0,0,0,0,0,0,0,0,0,0,0,0,0.0233,0.0233,0,0.0267,0.0268,0.0269,0.0356,0.0357,0.0359,0.036,0.0361,0.0359,0.0358,0,0,0,0,0,0,0,0,0,0,0,0,0,0.0213,0.0213,0.0233,0.0233,0.0233,0.0267,0.0268,0.0269,0.0355,0.0357,0.0359,0.0361,0.0361,0.0359,0.0358,0,0,0,0,0,0,0,0,0,0,0,0,0,0.0235,0.0214,0.0232,0.0278,0.0282,0.0267,0.0268,0.0269,0.0355,0.0357,0.036,0.0362,0.0362,0.0359,0.0357,0.0296,0,0,0.0351,0.035,0,0,0,0,0,0,0,0,0.0233,0.0236,0.0271,0.0275,0.028,0.0307,0.0261,0.0275,0.0354,0.033,0.036,0.0363,0.0336,0.0336,0.0342,0.0296,0.0296,0.035,0.0349,0.0348,0.0347,0,0,0,0,0,0,0,0.0232,0.0235,0.0249,0.0271,0.0276,0.0287,0.0293,0.0264,0.0321,0.0333,0.0338,0.0337,0.0339,0.0344,0.0342,0.0296,0.035,0.0348,0.0347,0.0346,0.0315,0.0315,0,0,0,0,0,0,0.0221,0.0233,0.0248,0.025,0.0259,0.0285,0.0293,0.0298,0.0322,0.0327,0.0335,0.0341,0.0346,0.0345,0.0342,0.0334,0.0348,0.0346,0.0345,0.0314,0.0315,0.0315,0,0,0,0,0,0,0.022,0.0222,0.0247,0.024,0.0243,0.0283,0.0289,0.0298,0.031,0.0324,0.033,0.0339,0.0348,0.0345,0.0361,0.0332,0.0345,0.0343,0.0314,0.0315,0.0315,0.0275,0,0,0,0,0,0,0.022,0.0222,0.022,0.0239,0.0243,0.0244,0.0286,0.0296,0.0304,0.0312,0.0328,0.0331,0.035,0.0364,0.0359,0.0329,0.0341,0.0313,0.0314,0.0315,0.0276,0.0275,0.0273,0,0,0,0,0,0.0219,0.0218,0.022,0.0222,0.0241,0.0243,0.0247,0.0285,0.0301,0.0305,0.0343,0.0331,0.0366,0.0363,0.0356,0.0325,0.0313,0.0314,0.0315,0.0277,0.0275,0.0274,0,0,0,0,0,0,0.0216,0.0227,0.023,0.0234,0.0236,0.0258,0.0266,0.0273,0.0301,0.032,0.0334,0.0339,0.0349,0.0343,0.034,0.0325,0.0336,0.0336,0.0309,0.0308,0.0306,0.0296,0.0339,0,0,0,0,0,0.0207,0.021,0.0215,0.0216,0.0219,0.0233,0.0237,0.0258,0.0282,0.0297,0.03,0.0319,0.0341,0.0334,0.0352,0.032,0.029,0.03,0.0299,0.0297,0.0288,0.0212,0.0201,0.0319,0.0319,0.0319,0,0,0.0205,0.021,0.0212,0.0214,0.0225,0.0233,0.0244,0.0254,0.026,0.0287,0.0295,0.0315,0.034,0.0342,0.034,0.0331,0.0255,0.0299,0.0297,0.0288,0.0212,0.02,0.0189,0.032,0.032,0.032,0,0,0.0211,0.0208,0.0217,0.0218,0.0225,0.0231,0.0227,0.0236,0.0243,0.0244,0.0286,0.0289,0.0291,0.0307,0.0318,0.0307,0.0265,0.0309,0.0266,0.0192,0.018,0.017,0.0133,0.0119,0.0289,0.0288,0.0288,0,0.0209,0.0224,0.0217,0.0228,0.0236,0.0228,0.0242,0.0236,0.0245,0.0242,0.025,0.0267,0.0274,0.0283,0.0292,0.0297,0.0262,0.0265,0.0185,0.0174,0.0163,0.0128,0.0113,0.0287,0.0287,0.0287,0.0287,0,0.0227,0.0238,0.0244,0.0256,0.0255,0.0266,0.0257,0.0246,0.0239,0.0229,0.0224,0.0233,0.0245,0.0236,0.026,0.0201,0.0206,0.0202,0.0177,0.0148,0.0115,0.01,0.0284,0.0285,0.0285,0.0286,0,0,0.0234,0.0254,0.0259,0.0277,0.0276,0.0284,0.0274,0.0264,0.0261,0.0228,0.0218,0.0218,0.0204,0.0217,0.0223,0.0141,0.0042,0.0131,0.0127,0.0075,-0.0107,-0.0072,-0.0084,0.001,0.0007,0.0004,-0.0097,0,0.0256,0.029,0.0289,0.0318,0.0337,0.0324,0.0319,0.0303,0.0276,0.0254,0.0218,0.0224,0.0202,0.0213,0.0124,0.0085,-0.0001,0.0071,-0.0053,-0.0056,-0.004,-0.0102,-0.0005,-0.0108,-0.0111,-0.0114,-0.0116,0,0.028,0.0301,0.0339,0.0365,0.0372,0.0385,0.038,0.0375,0.0329,0.0308,0.0266,0.0246,0.0175,0.015,-0.0005,0.004,-0.0041,-0.0103,-0.0109,-0.0077,-0.005,-0.0073,-0.0143,-0.014,-0.0138,-0.0137,-0.0135,0,0.0302,0.0339,0.0375,0.0385,0.0404,0.042,0.0429,0.0396,0.0397,0.0348,0.0336,0.0242,0.0223,0.0076,-0.0041,-0.0034,-0.0228,-0.0226,-0.0276,-0.0272,-0.0256,-0.0244,-0.0372,-0.0371,-0.0371,-0.0371,-0.0371,0,0.0329,0.0359,0.0397,0.0418,0.0467,0.0464,0.0494,0.048,0.0461,0.0459,0.0378,0.0351,0.0193,0.0078,-0.0054,-0.0204,-0.0241,-0.03,-0.0313,-0.0263,-0.0251,-0.0266,-0.0252,-0.0375,-0.0374,-0.0373,-0.0373,0,0.0349,0.0371,0.0419,0.0459,0.0483,0.0519,0.0565,0.0572,0.0549,0.0543,0.0536,0.0427,0.0274,0.0112,-0.0103,-0.0188,-0.035,-0.0396,-0.0313,-0.0315,-0.034,-0.0327,-0.0468,-0.0468,-0.0468,-0.0468,-0.0468,0,0.0364,0.0391,0.046,0.0496,0.0524,0.0581,0.0615,0.0622,0.0628,0.0584,0.0579,0.0454,0.0361,0.0096,-0.0091,-0.0337,-0.0367,-0.0431,-0.0418,-0.036,-0.0359,-0.0346,-0.0333,-0.0468,-0.0468,-0.0468,-0.0468,0,0.0387,0.0413,0.0453,0.0531,0.0587,0.0647,0.0697,0.0713,0.0708,0.0687,0.0622,0.0489,0.0325,0.0112,-0.0068,-0.0252,-0.0383,-0.0432,-0.0433,-0.0422,-0.0362,-0.0358,-0.0345,-0.0468,-0.0468,-0.0468,-0.0468,0,0.0405,0.0437,0.0491,0.0563,0.0633,0.0693,0.072,0.0734,0.075,0.0704,0.0678,0.0498,0.0398,0.0155,-0.0029,-0.019,-0.0231,-0.0264,-0.0275,-0.0278,-0.0191,-0.0086,-0.0139,0,0,0,0,0,0.0418,0.0454,0.0516,0.0594,0.0662,0.0712,0.076,0.0771,0.0772,0.0743,0.0719,0.0564,0.0316,0.0195,0.0039,-0.0049,-0.0274,-0.0237,-0.0321,-0.0468,-0.0468,-0.0396,0,0,0,0,0,0,0.0422,0.0479,0.0515,0.061,0.0671,0.075,0.0788,0.0788,0.0771,0.0746,0.061,0.055,0.0293,0.0411,0.0045,-0.0008,-0.0076,-0.0359,-0.0362,-0.0467,-0.0468,-0.0468,-0.0394,0,0,0,0,0]}]]